Location: Buckeye Ditch
(40.9104°N, 122.9517°W)
Time: 01:59:01
(UTC+00:00)

SR - Pass Details

Date: 26 May 2025
Orbit: 570 x 855 km, 66.7° (Epoch: 11 June)

Event Time Altitude Azimuth Distance (km) Brightness Sun altitude
Exits shadow 06:05:07 39° 114° (ESE) 1,267 ? -21.6°
Maximum altitude 06:05:14 39° 111° (ESE) 1,267 ? -21.6°
Drops below altitude 10° 06:10:33 10° 45° (NE) 2,483 ? -22.1°
Sets 06:13:09 0° 38° (NE) 3,406 ? -22.3°
